User: anonymous   Login
Location: Unspecified
(0.0000°N, 0.0000°E)
Time: 17:18:32
(UTC+00:00)
Language:

deb r/b Ablestar - Orbit

View from above orbital plane
View from above orbital plane
View from above satellite
View from above satellite

Ground track
Ground track

The orbit data is extracted from the following two-line orbital elements,

1 00335U 61015DM  17054.41547865  .00000476  00000-0  27664-3 0  9996
2 00335  66.8424 168.7959 0037960 172.4284 187.7390 14.16690274845373
Epoch (UTC): 23 February 2017 09:58:17
Eccentricity: 0.0037960
inclination: 66.8424°
perigee height: 809 km
apogee height: 864 km
right ascension of ascending node: 168.7959°
argument of perigee: 172.4284°
revolutions per day: 14.16690274
mean anomaly at epoch: 187.7390°
orbit number at epoch: 84537

The dashed part of the orbit path shows where the satellite is in the earth's shadow,  

DLR